Home   Weather   Gonda   Past weeks

Flag for India Past Weather in Gonda, Uttar Pradesh, India — Yesterday and Last 2 Weeks

Now
82 °F

Passing clouds.


Feels Like: 82 °F
Forecast: 75 / 106 °F
Wind: 2 mph from North

Location: Lucknow / Amausi

Current Time: Apr 28, 2017 at 2:39:38 am

Latest Report: Apr 28, 2017 at 2:00 am


Visibility: 2 mi

Pressure: 29.68 "Hg

Humidity: 40%

Dew Point: 55 °F

Location of GondaLocation

Past Weather in Gonda — Graph

°F

Gonda Temperature Yesterday

Maximum temperature yesterday: 106 °F (at 3:30 pm)
Minimum temperature yesterday: 73 °F (at 11:00 pm)
Average temperature yesterday: 92 °F

High & Low Weather Summary for the Past Weeks

 TemperatureHumidityPressure
High109 °F (Apr 15, 4:00 pm)89% (Apr 20, 5:00 am)29.80 "Hg (Apr 20, 5:00 am)
Low66 °F (Apr 13, 5:00 am)9% (Apr 25, 12:30 pm)29.47 "Hg (Apr 20, 4:00 pm)
Average92 °F44%29.63 "Hg
* Reported Apr 13 1:00 am — Apr 28 1:00 am, Gonda, Weather by CustomWeather, © 2017

Note: Actual official high and low records may vary slightly from our data, if they occured in-between our weather recording intervals... More about our weather records

Advertising

Gonda Weather History for the Previous 24 Hours

Scroll right to see more
 ConditionsComfort  
Time TempWeatherWind HumidityBarometerVisibility
1:00 am
Fri, Apr 28
84 °FPassing clouds.2 mph37%29.71 "Hg1 mi
12:00 am86 °FPartly cloudy.2 mph35%29.74 "Hg1 mi
11:00 pm
Thu, Apr 27
73 °FPassing clouds.8 mph53%29.74 "Hg1 mi
10:00 pm84 °FPassing clouds.2 mph37%29.71 "Hg2 mi
9:00 pm90 °FHaze.2 mph29%29.71 "Hg2 mi
8:00 pm91 °FPassing clouds.2 mph28%29.71 "Hg2 mi
7:30 pm93 °FPassing clouds.2 mph26%29.68 "Hg2 mi
7:00 pm95 °FScattered clouds.2 mph25%29.68 "Hg2 mi
5:30 pm104 °FHaze.3 mph17%29.65 "Hg2 mi
5:00 pm104 °FHaze.5 mph16%29.65 "Hg2 mi
4:00 pm104 °FHaze.5 mph16%29.68 "Hg2 mi
3:30 pm106 °FHaze.7 mph15%29.68 "Hg2 mi
3:00 pm104 °FHaze.7 mph16%29.68 "Hg2 mi
2:00 pm104 °FHaze.6 mph15%29.71 "Hg2 mi
1:00 pm104 °FHaze.6 mph17%29.71 "Hg2 mi
12:00 pm104 °FHaze.5 mph16%29.74 "Hg2 mi
11:30 am102 °FHaze.3 mph17%29.74 "Hg2 mi
11:00 am102 °FHaze.3 mph17%29.74 "Hg2 mi
10:00 am99 °FHaze.3 mph21%29.74 "Hg2 mi
9:00 am95 °FHaze.3 mph22%29.74 "Hg2 mi
8:00 am88 °FHaze.2 mph29%29.74 "Hg2 mi
7:00 am81 °FHaze.2 mph37%29.71 "Hg2 mi
6:30 am79 °FHaze.2 mph37%29.71 "Hg1 mi
6:00 am79 °FHaze.3 mph34%29.71 "Hg1 mi
5:30 am79 °FPassing clouds.3 mph37%29.71 "Hg1 mi
5:00 am81 °FPassing clouds.3 mph32%29.68 "Hg1 mi
4:00 am88 °FPassing clouds.3 mph24%29.65 "Hg1 mi
3:00 am84 °FPassing clouds.5 mph27%29.65 "Hg1 mi
2:00 am79 °FPassing clouds.No wind34%29.68 "Hg1 mi
Weather by CustomWeather, © 2017

See weather overviewHow to use our weather pages